Location: Unspecified
(40.9447°N, 78.9903°W)
Time: 22:00:19
(UTC-04:00)

Cosmos 2058 - Visible Passes

Search period start: 26 July 2021 00:00
Search period end: 05 August 2021 00:00
Orbit: 563 x 582 km, 82.5° (Epoch: 26 July)

Date Brightness Start Highest point End Pass type
(mag) Time Alt. Az. Time Alt. Az. Time Alt. Az.
26 Jul 3.9 21:56:30 10° SSW 22:00:31 48° W 22:04:36 10° N visible
27 Jul 4.5 21:59:23 10° SW 22:03:13 36° WNW 22:07:08 10° N visible
28 Jul 5.0 22:02:21 10° SW 22:05:57 28° WNW 22:09:36 10° NNW visible
29 Jul 5.5 22:05:26 10° SW 22:08:42 22° WNW 22:11:58 10° NNW visible
30 Jul 5.9 22:08:40 10° WSW 22:11:27 17° WNW 22:14:15 10° NNW visible
31 Jul 6.1 22:12:10 10° W 22:14:14 13° WNW 22:16:17 10° NW visible
01 Aug 6.5 22:16:33 10° WNW 22:17:01 10° WNW 22:17:30 10° WNW visible
